Home   Weather   Böblingen   Past weeks

Flag for Germany Past Weather in Böblingen, Baden-Württemberg, Germany — Yesterday and Last 2 Weeks

Now
39 °F

Sunny.


Feels Like: 37 °F
Forecast: 28 / 43 °F
Wind: 3 mph from East

Location: Stuttgart-Echterdingen

Current Time: Dec 10, 2016 at 12:06:34 pm

Latest Report: Dec 10, 2016 at 11:20 am


Visibility: 10 mi

Pressure: 30.33 "Hg

Humidity: 75%

Dew Point: 32 °F

Location of BöblingenLocation

Past Weather in Böblingen — Graph

°F

Böblingen Temperature Yesterday

Maximum temperature yesterday: 45 °F (at 2:50 pm)
Minimum temperature yesterday: 25 °F (at 2:50 am)
Average temperature yesterday: 35 °F

High & Low Weather Summary for the Past Weeks

 TemperatureHumidityPressure
High46 °F (Nov 27, 11:50 am)100% (Dec 2, 7:50 pm)30.54 "Hg (Dec 2, 7:50 pm)
Low19 °F (Nov 30, 5:20 am)31% (Dec 1, 1:50 pm)29.98 "Hg (Nov 25, 10:20 am)
Average34 °F85%30.30 "Hg
* Reported Nov 25 10:20 am — Dec 10 10:50 am, Böblingen, Weather by CustomWeather, © 2016

Note: Actual official high and low records may vary slightly from our data, if they occured in-between our weather recording intervals... More about our weather records

Advertising

Böblingen Weather History for the Previous 24 Hours

Scroll right to see more
 ConditionsComfort  
Time TempWeatherWind HumidityBarometerVisibility
10:50 am
Sat, Dec 10
37 °FSunny.2 mph81%30.33 "Hg10 mi
10:20 am36 °FSunny.2 mph87%30.33 "Hg10 mi
9:50 am34 °FSunny.3 mph87%30.33 "Hg10 mi
9:20 am32 °FSunny.2 mph93%30.33 "Hg10 mi
8:50 am30 °FSunny.2 mph93%30.33 "Hg10 mi
8:20 am28 °FSunny.1 mph93%30.33 "Hg10 mi
7:50 am30 °FClear.2 mph100%30.33 "Hg10 mi
7:20 am30 °FClear.2 mph93%30.33 "Hg10 mi
6:50 am30 °FClear.1 mph93%30.33 "Hg10 mi
6:20 am30 °FClear.2 mph93%30.33 "Hg10 mi
5:50 am30 °FClear.1 mph93%30.30 "Hg10 mi
5:20 am30 °FClear.1 mph100%30.33 "Hg10 mi
4:50 am30 °FClear.1 mph100%30.33 "Hg10 mi
4:20 am32 °FClear.1 mph93%30.33 "Hg10 mi
3:50 am32 °FClear.1 mph100%30.36 "Hg10 mi
3:20 am32 °FClear.1 mph93%30.36 "Hg10 mi
2:50 am32 °FClear.1 mph93%30.36 "Hg10 mi
2:20 am32 °FClear.1 mph93%30.36 "Hg10 mi
1:50 am34 °FClear.1 mph87%30.36 "Hg10 mi
1:20 am34 °FClear.1 mph87%30.39 "Hg10 mi
12:50 am36 °FClear.2 mph87%30.39 "Hg10 mi
12:20 am36 °FClear.2 mph87%30.39 "Hg10 mi
11:50 pm
Fri, Dec 9
36 °FClear.1 mph87%30.39 "Hg10 mi
11:20 pm36 °FClear.1 mph87%30.39 "Hg10 mi
10:50 pm39 °FPassing clouds.1 mph81%30.39 "HgN/A
10:20 pm39 °FPassing clouds.2 mph81%30.42 "HgN/A
9:50 pm39 °FPassing clouds.1 mph81%30.42 "HgN/A
9:20 pm41 °FPassing clouds.1 mph76%30.42 "HgN/A
8:50 pm43 °FPassing clouds.2 mph71%30.42 "HgN/A
8:20 pm43 °FPassing clouds.1 mph71%30.42 "HgN/A
7:50 pm43 °FPassing clouds.No wind71%30.42 "HgN/A
7:20 pm43 °FPassing clouds.1 mph76%30.42 "HgN/A
6:50 pm43 °FPassing clouds.1 mph76%30.42 "HgN/A
6:20 pm43 °FPassing clouds.1 mph76%30.45 "HgN/A
5:50 pm43 °FPassing clouds.1 mph71%30.45 "HgN/A
5:20 pm43 °FPassing clouds.1 mph71%30.45 "HgN/A
4:50 pm45 °FPassing clouds.2 mph66%30.45 "HgN/A
4:20 pm43 °FPartly sunny.1 mph71%30.45 "HgN/A
3:50 pm45 °FPartly sunny.1 mph66%30.45 "HgN/A
3:20 pm45 °FPartly sunny.1 mph66%30.45 "HgN/A
2:50 pm45 °FPartly sunny.1 mph71%30.45 "HgN/A
2:20 pm43 °FPartly sunny.1 mph76%30.45 "HgN/A
1:50 pm43 °FPartly sunny.2 mph71%30.45 "HgN/A
1:20 pm41 °FPartly sunny.2 mph76%30.45 "HgN/A
12:50 pm39 °FPartly sunny.2 mph75%30.45 "HgN/A
12:20 pm37 °FBroken clouds.2 mph81%30.45 "HgN/A
Weather by CustomWeather, © 2016

See weather overviewHow to use our weather pages